Find Starlink 31872

NORAD ID: 59922 Int'l Des: 2024-106 Owner: SPXS Country: US Constellation: starlink operational
LEOCIRCULAR

現在のビュー

3D地球を読み込み中...

About Starlink 31872

Starlink 31872 (NORAD 59922) is a starlink constellation satellite (v2 mini) launched Jun 1, 2024 by SPXS of US. It operates in LEO, CIRCULAR orbit with a mass of 730.00 kg.

Starlink 31872について

説明を読み込み中...

次回通過

Passes for default location (London). Set your location on the main map for personalized predictions.

高度履歴

Loading altitude history...

軌道要素

1 59922U 24106A 26168.17357286 .00000284 00000-0 19907-4 0 9996
2 59922 43.0133 131.0341 0003811 286.3110 73.7322 15.27569187115776
Epoch: Jun 17, 2026 • Age: 49 hours

現在のステータス

高度 484.7 km
速度 7.62 km/s
衛星直下点 -5.22°S, 46.94°W
打ち上げ日 Jun 1, 2024
運用期間 2 years
タイプ internet

技術仕様

分類 Payload
質量 730.00 kg
乾燥質量 700.00 kg
総質量 730.00 kg
長さ 0.30 m
直径 4.10 m
スパン 29.00 m
形状 Box + pan
製造者 SPXS
バスタイプ Starlink V2M
フェーズステータス In Orbit
所有者/国 SPXS/US

Most Searched